Weather History for St. Cloud, MN

Change the Weather History Date:

Monday, July 15, 2013

  Actual Average Record
Temperature  
Mean Temperature 77 °F 71 °F  
Max Temperature 87 °F 83 °F 102 °F (1931)
Min Temperature 66 °F 59 °F 44 °F (1912)
Degree Days  
Heating Degree Days 0 0  
Month to date heating degree days 0 13  
Since 1 June heating degree days 87 91  
Since 1 July heating degree days 0 13  
Cooling Degree Days 12 6  
Month to date cooling degree days 131 89  
Year to date cooling degree days 241 209  
Since 1 June cooling degree days 230 184  
Growing Degree Days 26 (Base 50)    
Moisture  
Dew Point 65 °F    
Average Humidity 71    
Maximum Humidity 93    
Minimum Humidity 48    
Precipitation  
Precipitation 0.00 in 0.11 in 1.74 in (2011)
Month to date precipitation 1.00 1.66  
Year to date precipitation 19.05 14.14  
Snow  
Snow 0.00 in 0.00 in 0.00 in ()
Month to date snowfall 0.0 0.0  
Since 1 June snowfall 0.0 0.0  
Since 1 July snowfall 0.0 0.0  
Snow Depth 0.00 in    
Sea Level Pressure  
Sea Level Pressure 30.21 in    
Wind  
Wind Speed 6 mph (SSE)    
Max Wind Speed 15 mph    
Max Gust Speed 28 mph    
Visibility 9 miles    
Events      
T = Trace of Precipitation, MM = Missing Value Source: NWS Daily Summary

Daily Weather History Graph

Daily Weather History Graph

Search for Another Location

Airport:

Trip Planner

Search our weather history database for the weather conditions in past years. The results will help you decide how hot, cold, wet, or windy it might be!

Date:

Astronomy

Jul. 15, 2013 Rise Set
Actual Time 5:42 AM CDT 9:01 PM CDT
Civil Twilight 5:05 AM CDT 9:38 PM CDT
Nautical Twilight 4:18 AM CDT 10:25 PM CDT
Astronomical Twilight 3:18 AM CDT 11:24 PM CDT
Moon 1:27 PM CDT (7/15) No Moon Set
Length of Visible Light 16h 32m
Length of Day
15h 19m
Waxing Crescent, 45% of the Moon is Illuminated
Jul 15
Waxing Crescent
Jul 15
First Quarter
Jul 22
Full
Jul 29
Last Quarter
Aug 6
New

Hourly Weather History & Observations

Time (CDT) Temp. Heat Index Dew Point Humidity Pressure Visibility Wind Dir Wind Speed Gust Speed Precip Events Conditions
12:53 AM 70.0 °F - 66.0 °F 87% 30.22 in 10.0 mi North 3.5 mph - N/A   Overcast
1:53 AM 69.1 °F - 64.9 °F 87% 30.22 in 9.0 mi NNE 5.8 mph - N/A   Overcast
2:53 AM 68.0 °F - 64.9 °F 90% 30.21 in 10.0 mi ENE 5.8 mph - N/A   Partly Cloudy
3:53 AM 66.9 °F - 64.9 °F 93% 30.21 in 8.0 mi East 6.9 mph - N/A   Clear
4:53 AM 66.9 °F - 64.9 °F 93% 30.21 in 7.0 mi ESE 4.6 mph - N/A   Clear
5:53 AM 66.0 °F - 64.9 °F 96% 30.22 in 4.0 mi Calm Calm - N/A   Clear
6:53 AM 68.0 °F - 64.9 °F 90% 30.23 in 5.0 mi ENE 4.6 mph - N/A   Clear
7:53 AM 71.1 °F - 66.0 °F 84% 30.23 in 8.0 mi ESE 4.6 mph - N/A   Clear
8:53 AM 73.9 °F - 66.0 °F 76% 30.24 in 10.0 mi South 4.6 mph - N/A   Clear
9:53 AM 77.0 °F - 66.0 °F 69% 30.24 in 10.0 mi South 6.9 mph - N/A   Clear
10:53 AM 81.0 °F 83.0 °F 66.0 °F 60% 30.24 in 10.0 mi SSW 5.8 mph - N/A   Clear
11:53 AM 82.9 °F 85.0 °F 66.0 °F 56% 30.23 in 10.0 mi South 8.1 mph - N/A   Clear
12:53 PM 84.9 °F 85.9 °F 63.0 °F 48% 30.22 in 10.0 mi South 9.2 mph - N/A   Clear
1:53 PM 86.0 °F 87.3 °F 64.0 °F 48% 30.22 in 10.0 mi South 9.2 mph - N/A   Partly Cloudy
2:53 PM 86.0 °F 87.3 °F 64.0 °F 48% 30.20 in 10.0 mi South 12.7 mph - N/A   Scattered Clouds
3:53 PM 86.0 °F 87.3 °F 64.0 °F 48% 30.20 in 10.0 mi South 9.2 mph - N/A   Clear
4:53 PM 84.9 °F 86.1 °F 64.0 °F 49% 30.19 in 10.0 mi South 8.1 mph 19.6 mph N/A   Partly Cloudy
5:53 PM 84.9 °F 86.1 °F 64.0 °F 49% 30.19 in 10.0 mi South 10.4 mph - N/A   Clear
6:53 PM 82.9 °F 84.6 °F 64.9 °F 54% 30.18 in 10.0 mi South 6.9 mph - N/A   Clear
7:53 PM 81.0 °F 83.0 °F 66.0 °F 60% 30.17 in 10.0 mi SSE 5.8 mph - N/A   Clear
8:53 PM 78.1 °F - 66.9 °F 68% 30.17 in 10.0 mi Calm Calm - N/A   Clear
9:53 PM 75.9 °F - 66.0 °F 71% 30.18 in 10.0 mi SE 3.5 mph - N/A   Clear
10:53 PM 73.9 °F - 66.0 °F 76% 30.17 in 9.0 mi ESE 4.6 mph - N/A   Clear
11:53 PM 73.0 °F - 66.9 °F 81% 30.17 in 9.0 mi SE 5.8 mph - N/A   Clear